Time,TemperatureF,DewpointF,PressureIn,WindDirection,WindDirectionDegrees,WindSpeedMPH,WindSpeedGustMPH,Humidity,HourlyPrecipIn,Conditions,Clouds,dailyrainin,SoftwareType,DateUTC
2013-09-25 00:14:00,52.0,46.0,29.97,NW,316,0.0,1.0,79,0.00,,,0.00,,2013-09-25 04:14:00,
2013-09-25 00:24:00,51.0,46.0,29.97,WNW,300,0.0,1.0,83,0.00,,,0.00,,2013-09-25 04:24:00,
2013-09-25 00:43:00,51.0,46.0,29.97,WNW,300,0.0,1.0,83,0.00,,,0.00,,2013-09-25 04:43:00,
2013-09-25 00:54:00,51.0,46.0,29.97,WNW,303,0.0,1.0,83,0.00,,,0.00,,2013-09-25 04:54:00,
2013-09-25 01:13:00,50.0,46.0,29.97,WNW,284,0.0,2.0,85,0.00,,,0.00,,2013-09-25 05:13:00,
2013-09-25 01:23:00,49.0,45.0,29.97,WNW,284,0.0,0.0,87,0.00,,,0.00,,2013-09-25 05:23:00,
2013-09-25 01:53:00,48.0,45.0,29.97,NNW,328,0.0,3.0,89,0.00,,,0.00,,2013-09-25 05:53:00,
2013-09-25 02:13:00,48.0,45.0,29.96,NW,322,0.0,2.0,90,0.00,,,0.00,,2013-09-25 06:13:00,
2013-09-25 02:23:00,47.0,44.0,29.96,WNW,284,0.0,2.0,90,0.00,,,0.00,,2013-09-25 06:23:00,
2013-09-25 02:42:00,47.0,45.0,29.96,WNW,284,0.0,1.0,91,0.00,,,0.00,,2013-09-25 06:42:00,
2013-09-25 02:52:00,46.0,44.0,29.96,NNW,331,0.0,3.0,91,0.00,,,0.00,,2013-09-25 06:52:00,
2013-09-25 03:12:00,46.0,44.0,29.96,NW,305,0.0,2.0,92,0.00,,,0.00,,2013-09-25 07:12:00,
2013-09-25 03:22:00,46.0,44.0,29.96,NW,306,0.0,2.0,92,0.00,,,0.00,,2013-09-25 07:22:00,
2013-09-25 03:42:00,45.0,43.0,29.96,NW,315,0.0,2.0,92,0.00,,,0.00,,2013-09-25 07:42:00,
2013-09-25 03:53:00,45.0,43.0,29.96,WNW,298,0.0,2.0,92,0.00,,,0.00,,2013-09-25 07:53:00,
2013-09-25 04:12:00,45.0,43.0,29.96,WNW,303,0.0,1.0,93,0.00,,,0.00,,2013-09-25 08:12:00,
2013-09-25 04:22:00,45.0,43.0,29.96,NW,307,0.0,1.0,93,0.00,,,0.00,,2013-09-25 08:22:00,
2013-09-25 04:42:00,44.0,42.0,29.96,NW,307,0.0,1.0,93,0.00,,,0.00,,2013-09-25 08:42:00,
2013-09-25 04:52:00,44.0,42.0,29.96,NW,307,0.0,1.0,93,0.00,,,0.00,,2013-09-25 08:52:00,
2013-09-25 05:11:00,44.0,42.0,29.96,WNW,301,0.0,1.0,93,0.00,,,0.00,,2013-09-25 09:11:00,
2013-09-25 05:22:00,44.0,42.0,29.96,WNW,300,0.0,1.0,93,0.00,,,0.00,,2013-09-25 09:22:00,
2013-09-25 05:43:00,43.0,41.0,29.96,WNW,303,0.0,1.0,94,0.00,,,0.00,,2013-09-25 09:43:00,
2013-09-25 05:53:00,43.0,41.0,29.96,NW,313,0.0,1.0,94,0.00,,,0.00,,2013-09-25 09:53:00,
2013-09-25 06:12:00,43.0,41.0,29.96,WNW,303,0.0,1.0,94,0.00,,,0.00,,2013-09-25 10:12:00,
2013-09-25 06:23:00,43.0,41.0,29.96,NW,311,0.0,1.0,94,0.00,,,0.00,,2013-09-25 10:23:00,
2013-09-25 06:42:00,43.0,41.0,29.96,NW,317,0.0,1.0,94,0.00,,,0.00,,2013-09-25 10:42:00,
2013-09-25 06:53:00,42.0,40.0,29.96,NW,307,0.0,1.0,94,0.00,,,0.00,,2013-09-25 10:53:00,
2013-09-25 07:12:00,42.0,40.0,29.96,NW,322,0.0,1.0,94,0.00,,,0.00,,2013-09-25 11:12:00,
2013-09-25 07:22:00,42.0,40.0,29.96,NW,314,0.0,1.0,94,0.00,,,0.00,,2013-09-25 11:22:00,
2013-09-25 07:43:00,42.0,40.0,29.97,NW,313,0.0,1.0,94,0.00,,,0.00,,2013-09-25 11:43:00,
2013-09-25 07:52:00,42.0,40.0,29.96,NW,315,0.0,1.0,94,0.00,,,0.00,,2013-09-25 11:52:00,
2013-09-25 08:12:00,43.0,41.0,29.97,NW,308,0.0,1.0,94,0.00,,,0.00,,2013-09-25 12:12:00,
2013-09-25 08:22:00,44.0,42.0,29.97,NW,317,0.0,1.0,94,0.00,,,0.00,,2013-09-25 12:22:00,
2013-09-25 08:52:00,45.0,43.0,29.98,NW,317,0.0,1.0,94,0.00,,,0.00,,2013-09-25 12:52:00,
2013-09-25 09:11:00,46.0,44.0,29.98,NW,317,0.0,1.0,94,0.00,,,0.00,,2013-09-25 13:11:00,
2013-09-25 09:22:00,48.0,46.0,29.98,NW,317,0.0,1.0,93,0.00,,,0.00,,2013-09-25 13:22:00,
2013-09-25 09:52:00,52.0,49.0,29.98,NW,311,0.0,1.0,88,0.00,,,0.00,,2013-09-25 13:52:00,
2013-09-25 10:11:00,53.0,48.0,29.98,WNW,296,0.0,3.0,83,0.00,,,0.00,,2013-09-25 14:11:00,
2013-09-25 10:22:00,54.0,47.0,29.98,NW,325,0.0,4.0,78,0.00,,,0.00,,2013-09-25 14:22:00,
2013-09-25 10:43:00,55.0,48.0,29.97,NW,306,1.0,2.0,77,0.00,,,0.00,,2013-09-25 14:43:00,
2013-09-25 10:52:00,56.0,47.0,29.97,NW,324,1.0,5.0,73,0.00,,,0.00,,2013-09-25 14:52:00,
2013-09-25 11:11:00,58.0,48.0,29.96,WNW,302,0.0,3.0,70,0.00,,,0.00,,2013-09-25 15:11:00,
2013-09-25 11:22:00,58.0,47.0,29.96,NW,314,2.0,5.0,68,0.00,,,0.00,,2013-09-25 15:22:00,
2013-09-25 11:44:00,59.0,48.0,29.96,NNW,335,3.0,5.0,66,0.00,,,0.00,,2013-09-25 15:44:00,
2013-09-25 11:53:00,60.0,48.0,29.96,NNW,332,1.0,7.0,64,0.00,,,0.00,,2013-09-25 15:53:00,
2013-09-25 12:13:00,61.0,47.0,29.95,WNW,303,1.0,6.0,61,0.00,,,0.00,,2013-09-25 16:13:00,
2013-09-25 12:23:00,62.0,48.0,29.95,NW,312,1.0,6.0,61,0.00,,,0.00,,2013-09-25 16:23:00,
2013-09-25 12:43:00,63.0,49.0,29.95,NW,308,1.0,4.0,61,0.00,,,0.00,,2013-09-25 16:43:00,
2013-09-25 12:53:00,64.0,50.0,29.94,NW,304,2.0,5.0,60,0.00,,,0.00,,2013-09-25 16:53:00,
2013-09-25 13:13:00,64.0,49.0,29.94,WSW,253,1.0,4.0,59,0.00,,,0.00,,2013-09-25 17:13:00,
2013-09-25 13:23:00,65.0,49.0,29.93,NW,307,1.0,4.0,56,0.00,,,0.00,,2013-09-25 17:23:00,
2013-09-25 13:43:00,66.0,47.0,29.93,WNW,288,1.0,4.0,51,0.00,,,0.00,,2013-09-25 17:43:00,
2013-09-25 13:52:00,66.0,48.0,29.93,WNW,301,3.0,7.0,52,0.00,,,0.00,,2013-09-25 17:52:00,
2013-09-25 14:13:00,66.0,47.0,29.93,West,268,2.0,6.0,51,0.00,,,0.00,,2013-09-25 18:13:00,
2013-09-25 14:22:00,67.0,48.0,29.92,NW,308,2.0,5.0,50,0.00,,,0.00,,2013-09-25 18:22:00,
2013-09-25 14:42:00,67.0,49.0,29.92,WNW,290,0.0,6.0,53,0.00,,,0.00,,2013-09-25 18:42:00,
2013-09-25 14:52:00,68.0,49.0,29.91,WNW,301,1.0,5.0,51,0.00,,,0.00,,2013-09-25 18:52:00,
2013-09-25 15:11:00,68.0,49.0,29.91,NW,322,0.0,4.0,51,0.00,,,0.00,,2013-09-25 19:11:00,
2013-09-25 15:22:00,68.0,49.0,29.91,NW,315,0.0,6.0,51,0.00,,,0.00,,2013-09-25 19:22:00,
2013-09-25 15:42:00,68.0,49.0,29.90,NNW,341,0.0,4.0,51,0.00,,,0.00,,2013-09-25 19:42:00,
2013-09-25 15:52:00,68.0,49.0,29.90,NNW,341,0.0,4.0,51,0.00,,,0.00,,2013-09-25 19:52:00,
2013-09-25 16:12:00,68.0,50.0,29.90,NW,316,0.0,5.0,52,0.00,,,0.00,,2013-09-25 20:12:00,
2013-09-25 16:23:00,67.0,50.0,29.89,NW,313,2.0,5.0,54,0.00,,,0.00,,2013-09-25 20:23:00,
2013-09-25 16:43:00,68.0,50.0,29.89,NW,308,1.0,4.0,53,0.00,,,0.00,,2013-09-25 20:43:00,
2013-09-25 16:52:00,68.0,51.0,29.89,NW,307,0.0,3.0,54,0.00,,,0.00,,2013-09-25 20:52:00,
2013-09-25 17:12:00,68.0,50.0,29.89,NW,317,2.0,4.0,53,0.00,,,0.00,,2013-09-25 21:12:00,
2013-09-25 17:22:00,68.0,50.0,29.89,NW,322,1.0,4.0,53,0.00,,,0.00,,2013-09-25 21:22:00,
2013-09-25 17:44:00,68.0,50.0,29.89,North,349,1.0,4.0,52,0.00,,,0.00,,2013-09-25 21:44:00,
2013-09-25 17:54:00,68.0,51.0,29.89,NW,311,0.0,5.0,54,0.00,,,0.00,,2013-09-25 21:54:00,
2013-09-25 18:14:00,68.0,51.0,29.89,NW,320,1.0,5.0,54,0.00,,,0.00,,2013-09-25 22:14:00,
2013-09-25 18:23:00,67.0,50.0,29.89,NW,313,2.0,6.0,54,0.00,,,0.00,,2013-09-25 22:23:00,
2013-09-25 18:42:00,67.0,50.0,29.89,NW,310,1.0,5.0,55,0.00,,,0.00,,2013-09-25 22:42:00,
2013-09-25 18:53:00,66.0,52.0,29.90,NW,304,0.0,3.0,60,0.00,,,0.00,,2013-09-25 22:53:00,
2013-09-25 19:12:00,64.0,53.0,29.90,NW,304,0.0,0.0,68,0.00,,,0.00,,2013-09-25 23:12:00,
2013-09-25 19:23:00,61.0,52.0,29.91,NW,305,0.0,1.0,73,0.00,,,0.00,,2013-09-25 23:23:00,
2013-09-25 19:42:00,60.0,52.0,29.91,NW,311,0.0,1.0,76,0.00,,,0.00,,2013-09-25 23:42:00,
2013-09-25 19:53:00,59.0,52.0,29.91,NW,311,0.0,1.0,79,0.00,,,0.00,,2013-09-25 23:53:00,
2013-09-25 20:12:00,58.0,52.0,29.91,NW,311,0.0,0.0,81,0.00,,,0.00,,2013-09-26 00:12:00,
2013-09-25 20:22:00,57.0,52.0,29.92,NW,311,0.0,0.0,84,0.00,,,0.00,,2013-09-26 00:22:00,
2013-09-25 20:42:00,56.0,52.0,29.92,NW,310,0.0,0.0,87,0.00,,,0.00,,2013-09-26 00:42:00,
2013-09-25 20:52:00,56.0,52.0,29.93,NW,310,0.0,0.0,88,0.00,,,0.00,,2013-09-26 00:52:00,
2013-09-25 21:12:00,55.0,52.0,29.93,NW,311,0.0,0.0,89,0.00,,,0.00,,2013-09-26 01:12:00,
2013-09-25 21:23:00,55.0,52.0,29.93,NW,312,0.0,0.0,89,0.00,,,0.00,,2013-09-26 01:23:00,
2013-09-25 21:42:00,54.0,51.0,29.94,NW,310,0.0,0.0,90,0.00,,,0.00,,2013-09-26 01:42:00,
2013-09-25 21:52:00,54.0,51.0,29.94,NW,310,0.0,0.0,91,0.00,,,0.00,,2013-09-26 01:52:00,
2013-09-25 22:13:00,54.0,52.0,29.95,NW,311,0.0,0.0,92,0.00,,,0.00,,2013-09-26 02:13:00,
2013-09-25 22:22:00,53.0,51.0,29.96,NW,310,0.0,0.0,93,0.00,,,0.00,,2013-09-26 02:22:00,
2013-09-25 23:12:00,53.0,51.0,29.97,NW,310,0.0,0.0,94,0.00,,,0.00,,2013-09-26 03:12:00,
2013-09-25 23:23:00,55.0,54.0,29.97,NW,324,2.0,4.0,95,0.00,,,0.00,,2013-09-26 03:23:00,
2013-09-25 23:44:00,56.0,53.0,29.97,NW,315,0.0,3.0,91,0.00,,,0.00,,2013-09-26 03:44:00,
2013-09-25 23:54:00,57.0,54.0,29.98,NNW,332,1.0,2.0,89,0.00,,,0.00,,2013-09-26 03:54:00,